N0MQJ Weather Reports


Display with metric or nautical units.
time (UTC)temp
F
wind
direction
speed
MPH
gust
MPH
rain 1hr
in
rain 24hr
in
rain mn
in
humidity
%
barometer
mb
20260510224517 60 204 0.0 5.0 0.00 0.00 0.00 20 1011.4
20260510223021 60 202 0.0 6.0 0.00 0.00 0.00 21 1011.6
20260510221609 60 194 2.0 6.0 0.00 0.00 0.00 21 1011.8
20260510220021 59 196 4.0 7.0 0.00 0.00 0.00 20 1011.7
20260510214515 60 265 4.0 10.0 0.00 0.00 0.00 21 1011.9
20260510213016 59 115 0.0 7.0 0.00 0.00 0.00 22 1012.1
20260510211556 59 231 0.0 7.0 0.00 0.00 0.00 22 1012.3
20260510210016 59 217 1.0 7.0 0.00 0.00 0.00 21 1012.3
20260510204501 59 267 0.0 6.0 0.00 0.00 0.00 22 1012.4
20260510203041 59 223 4.0 8.0 0.00 0.00 0.00 22 1012.4
20260510201523 59 128 0.0 8.0 0.00 0.00 0.00 24 1012.5
20260510200043 58 126 0.0 5.0 0.00 0.00 0.00 23 1012.6
20260510194533 58 121 2.0 10.0 0.00 0.00 0.00 23 1012.6
20260510193023 58 182 2.0 6.0 0.00 0.00 0.00 23 1012.6
20260510190059 58 117 0.0 8.0 0.00 0.00 0.00 23 1012.6
20260510183038 56 27 2.0 8.0 0.00 0.00 0.00 21 1012.8
20260510181530 55 202 0.0 7.0 0.00 0.00 0.00 21 1012.7
20260510180001 56 107 2.0 9.0 0.00 0.00 0.00 25 1012.7
20260510174526 54 102 1.0 7.0 0.00 0.00 0.00 27 1012.7
20260510171508 53 118 0.0 5.0 0.00 0.00 0.00 33 1012.5
20260510170044 52 151 0.0 5.0 0.00 0.00 0.00 40 1012.4
20260510164537 52 157 0.0 7.0 0.00 0.00 0.00 42 1012.2
20260510163050 51 146 0.0 0.0 0.00 0.00 0.00 46 1012.1
20260510161527 49 165 0.0 5.0 0.00 0.00 0.00 49 1012.0
20260510160013 47 216 0.0 7.0 0.00 0.00 0.00 53 1011.9
20260510154540 47 194 1.0 6.0 0.00 0.00 0.00 51 1011.9
20260510153057 45 190 0.0 7.0 0.00 0.00 0.00 60 1012.0
20260510151602 43 190 0.0 1.0 0.00 0.00 0.00 62 1011.8
20260510150126 41 192 0.0 3.0 0.00 0.00 0.00 70 1011.7
20260510144506 41 192 0.0 0.0 0.00 0.00 0.00 69 1011.6
20260510143002 41 220 0.0 0.0 0.00 0.00 0.00 69 1011.3
20260510141518 40 221 0.0 1.0 0.00 0.00 0.00 80 1011.2
20260510140100 39 221 0.0 0.0 0.00 0.00 0.00 84 1011.4
20260510134525 38 221 0.0 0.0 0.00 0.00 0.00 86 1011.5
20260510133044 38 220 0.0 4.0 0.00 0.00 0.00 89 1011.3
20260510131626 37 221 0.0 2.0 0.00 0.00 0.00 89 1011.1
20260510130019 37 221 0.0 5.0 0.00 0.00 0.00 90 1010.8
20260510124524 37 220 0.0 0.0 0.00 0.00 0.00 90 1010.8
20260510123001 36 220 0.0 3.0 0.00 0.00 0.00 90 1010.7
20260510121627 36 220 0.0 0.0 0.00 0.00 0.00 90 1010.6
20260510120026 36 220 0.0 0.0 0.00 0.00 0.00 91 1010.3
20260510114525 36 220 0.0 0.0 0.00 0.00 0.00 90 1010.4
20260510113043 36 220 0.0 0.0 0.00 0.00 0.00 90 1010.2
20260510111505 35 221 0.0 0.0 0.00 0.00 0.00 90 1010.0
20260510110025 36 221 0.0 5.0 0.00 0.00 0.00 89 1010.0
20260510104533 36 221 3.0 6.0 0.00 0.00 0.00 89 1010.2
20260510103059 37 218 1.0 6.0 0.00 0.00 0.00 88 1010.2
20260510101600 37 222 2.0 5.0 0.00 0.00 0.00 88 1010.1
20260510100057 37 116 0.0 4.0 0.00 0.00 0.00 87 1009.7
20260510094559 37 116 0.0 0.0 0.00 0.00 0.00 87 1009.5
20260510093147 37 116 0.0 0.0 0.00 0.00 0.00 87 1009.3
20260510091510 37 116 0.0 0.0 0.00 0.00 0.00 87 1009.3
20260510090151 36 116 0.0 0.0 0.00 0.00 0.00 87 1009.1
20260510084525 36 116 0.0 3.0 0.00 0.00 0.00 88 1008.8
20260510083010 36 111 0.0 0.0 0.00 0.00 0.00 87 1008.9
20260510081538 36 111 0.0 0.0 0.00 0.00 0.00 87 1008.8
20260510080015 36 79 0.0 0.0 0.00 0.00 0.00 87 1008.8
20260510074626 36 78 0.0 0.0 0.00 0.00 0.00 87 1008.7
20260510073006 36 74 0.0 0.0 0.00 0.00 0.00 87 1008.8
20260510071507 36 74 0.0 0.0 0.00 0.00 0.00 87 1008.6
20260510070052 36 74 0.0 0.0 0.00 0.00 0.00 87 1008.5
20260510064537 36 72 0.0 8.0 0.00 0.00 0.00 87 1008.5
20260510063014 37 72 2.0 10.0 0.00 0.00 0.00 87 1008.0
20260510061511 37 109 0.0 8.0 0.00 0.00 0.00 87 1007.9
20260510060055 37 159 0.0 7.0 0.00 0.00 0.00 86 1007.5
20260510054557 37 188 1.0 7.0 0.00 0.00 0.00 84 1007.7
20260510053052 37 207 4.0 10.0 0.00 0.00 0.00 83 1007.1
20260510051619 38 156 1.0 5.0 0.00 0.00 0.00 82 1007.2
20260510050021 38 136 3.0 13.0 0.00 0.00 0.00 80 1006.7
20260510044520 39 209 3.0 9.0 0.00 0.00 0.00 77 1006.9
20260510043044 40 115 2.0 9.0 0.00 0.00 0.00 73 1006.9
20260510041522 43 198 0.0 9.0 0.00 0.00 0.00 64 1007.0
20260510040048 46 117 0.0 7.0 0.00 0.00 0.00 54 1006.6
20260510034539 47 69 0.0 4.0 0.00 0.00 0.00 36 1006.6
20260510033023 48 59 0.0 0.0 0.00 0.00 0.00 32 1006.0
20260510031606 48 58 0.0 0.0 0.00 0.00 0.00 29 1005.5
20260510030046 49 58 0.0 0.0 0.00 0.00 0.00 29 1005.1
20260510024515 50 59 0.0 0.0 0.00 0.00 0.00 29 1004.7
20260510023031 51 59 0.0 0.0 0.00 0.00 0.00 27 1004.3
20260510021601 52 32 0.0 1.0 0.00 0.00 0.00 24 1004.1
20260510020125 53 34 0.0 6.0 0.00 0.00 0.00 24 1003.9
20260510014520 55 20 0.0 10.0 0.00 0.00 0.00 22 1003.6
20260510013030 55 71 1.0 11.0 0.00 0.00 0.00 21 1003.5
20260510011504 56 338 1.0 12.0 0.00 0.00 0.00 20 1003.5
20260510010026 56 67 1.0 9.0 0.00 0.00 0.00 19 1003.4
20260510004511 57 41 0.0 9.0 0.00 0.00 0.00 20 1003.2
20260510003138 57 11 3.0 12.0 0.00 0.00 0.00 18 1003.2
20260510001536 57 21 0.0 11.0 0.00 0.00 0.00 19 1003.4
20260510000046 57 38 2.0 12.0 0.00 0.00 0.00 19 1003.2
20260509234546 57 36 2.0 10.0 0.00 0.00 0.00 19 1002.9
20260509233031 57 5 0.0 16.0 0.00 0.00 0.00 18 1003.0
20260509231549 58 10 5.0 16.0 0.00 0.00 0.00 19 1002.8
20260509230050 58 17 4.0 16.0 0.00 0.00 0.00 18 1002.6